Regional Weather Roundup
Issued by NWS

Home | Current Version | Previous Version | Text Only | Print | Product List | Glossary Off
Versions: 1 2 3 4 5 6 7 8 9 10 11 12 13 14 15 16 17 18 19 20 21 22 23 24 25 26 27 28 29 30 31 32 33 34 35 36 37 38 39 40 41 42 43 44 45 46 47 48 49 50

000
ASUS43 KLSX 280659
RWRMO

WEATHER SUMMARY FOR MISSOURI
NATIONAL WEATHER SERVICE SPRINGFIELD MO
200 AM CDT TUE MAR 28 2017

NOTE: "FAIR" INDICATES FEW OR NO CLOUDS BELOW 12,000 FEET WITH NO
       SIGNIFICANT WEATHER AND/OR OBSTRUCTIONS TO VISIBILITY.
       CURRENT SKY AND/OR WEATHER CONDITIONS ARE NOT AVAILABLE FOR
       CHILLICOTHE AND FARMINGTON.

MOZ001>031-035>038-043-044-053-054-280800-
...NORTHERN AND WESTERN MISSOURI...

CITY           SKY/WX    TMP DP  RH WIND       PRES   REMARKS
KANSAS CTY INT CLOUDY    49  45  86 N5        30.02R
KANSAS C DTWN  CLOUDY    51  46  83 NE6       30.02R
LEE`S SUMMIT   CLOUDY    50  47  89 N6        30.02R
ST JOSEPH      CLOUDY    48  47  96 CALM      30.04R
CHILLICOTHE      N/A     48  46  93 N5        30.03R
KIRKSVILLE     CLOUDY    48  47  96 N3        30.01S FOG

$$
MOZ066>068-077>081-088>096-101>105-280800-
...SOUTHWEST MISSOURI...

CITY           SKY/WX    TMP DP  RH WIND       PRES   REMARKS
SPRINGFIELD    CLOUDY    51  49  92 N7        29.97S
JOPLIN         CLOUDY    51  50  96 NE6       29.99S

$$
MOZ032>034-039>042-045>050-055>058-069>072-280800-
...CENTRAL MISSOURI...

CITY           SKY/WX    TMP DP  RH WIND       PRES   REMARKS
COLUMBIA       CLOUDY    51  50  96 N7        29.97F
JEFFERSON CITY CLOUDY    55  51  86 NE5       29.96F
ROLLA          FOG       51  51 100 N6        29.94F VSB 1/2
SEDALIA        CLOUDY    50  49  96 N8        29.99S
WARRENSBURG    CLOUDY    48  46  93 NW3       30.01R
OSAGE BEACH    CLOUDY   N/A N/A N/A W3        29.98S

$$
MOZ051-052-059>065-280800-
...EAST CENTRAL MISSOURI...

CITY           SKY/WX    TMP DP  RH WIND       PRES   REMARKS
ST LOUIS INTL  DRIZZLE   55  51  86 N13       29.97R FOG
SPIRIT OF STL  CLOUDY    55  52  89 N6        29.97R
ST CHARLES     CLOUDY    54  51  90 N9        29.97R

$$
MOZ072>076-082>087-097>100-106>115-280800-
...SOUTH CENTRAL AND SOUTHEAST MISSOURI...

CITY           SKY/WX    TMP DP  RH WIND       PRES   REMARKS
CAPE GIRARDEAU MOCLDY    51  49  92 W6        29.93R
FARMINGTON     CLOUDY    54  52  93 VRB6      29.96R
POPLAR BLUFF   PTCLDY    55  52  89 N6        29.93F
WEST PLAINS    MOCLDY    51  49  92 NW3       29.96S

$$



USA.gov is the U.S. government's official web portal to all federal, state and local government web resources and services.